User: anonymous   Login
Location: Unspecified
(0.0000°N, 0.0000°E)
Time: 16:17:29
(UTC+00:00)
Language:

USA 176 - Orbit

View from above orbital plane
View from above orbital plane
View from above satellite
View from above satellite

Ground track
Ground track

The orbit data is extracted from the following two-line orbital elements,

1 28158U 04004A   18250.91345210 0.00000000  00000-0  00000-0 0    06
2 28158   8.3173  43.1481 0006195  73.8036 286.2853  1.00270000    01
Epoch (UTC): 07 September 2018 21:55:22
Eccentricity: 0.0006195
inclination: 8.3173°
perigee height: 35760 km
apogee height: 35813 km
right ascension of ascending node: 43.1481°
argument of perigee: 73.8036°
revolutions per day: 1.00270000
mean anomaly at epoch: 286.2853°
orbit number at epoch: 0

The dashed part of the orbit path shows where the satellite is in the earth's shadow,  

DLR